Weather History for KDEC - May, 2013

Change the Weather History Date:

Friday, May 10, 2013

  Actual Average Record
Temperature  
Mean Temperature 58 °F 61 °F  
Max Temperature 66 °F 73 °F 89 °F (2005)
Min Temperature 50 °F 50 °F 38 °F (2008)
Degree Days  
Heating Degree Days 7 5  
Month to date heating degree days 35 63  
Since 1 July heating degree days 5324 5426  
Cooling Degree Days 0 1  
Month to date cooling degree days 3 10  
Year to date cooling degree days 13 24  
Growing Degree Days 8 (Base 50)    
Moisture  
Dew Point 54 °F    
Average Humidity 85    
Maximum Humidity 97    
Minimum Humidity 73    
Precipitation  
Precipitation T in 0.14 in 1.96 in (2003)
Month to date precipitation 2.31 1.54  
Year to date precipitation 13.99 11.70  
Sea Level Pressure  
Sea Level Pressure 29.92 in    
Wind  
Wind Speed 10 mph (NNW)    
Max Wind Speed 18 mph    
Max Gust Speed 23 mph    
Visibility 9 miles    
Events      
T = Trace of Precipitation, MM = Missing Value Source: NWS Daily Summary

Daily Weather History Graph

Daily Weather History Graph

Search for Another Location

Airport or City:

Trip Planner

Search our weather history database for the weather conditions in past years. The results will help you decide how hot, cold, wet, or windy it might be!

Date:

Astronomy

May. 10, 2013 Rise Set
Actual Time 5:45 AM CDT 7:59 PM CDT
Civil Twilight 5:15 AM CDT 8:29 PM CDT
Nautical Twilight 4:38 AM CDT 9:06 PM CDT
Astronomical Twilight 3:57 AM CDT 9:47 PM CDT
Moon 6:09 AM CDT (5/10) 8:48 PM CDT (5/10)
Length of Visible Light 15h 14m
Length of Day
14h 13m
New Moon, 0% of the Moon is Illuminated
May 10
New Moon
May 17
First Quarter
May 24
Full
May 31
Last Quarter
Jun 8
New

Hourly Weather History & Observations

Time (CDT) Temp. Dew Point Humidity Pressure Visibility Wind Dir Wind Speed Gust Speed Precip Events Conditions
1:54 AM 60.1 °F 59.0 °F 96% 29.85 in 10.0 mi SW 5.8 mph - N/A   Scattered Clouds
2:54 AM 60.1 °F 57.9 °F 93% 29.84 in 10.0 mi SW 6.9 mph - N/A   Clear
3:54 AM 61.0 °F 57.9 °F 90% 29.83 in 10.0 mi WSW 9.2 mph - N/A   Clear
4:54 AM 61.0 °F 59.0 °F 93% 29.83 in 10.0 mi WSW 5.8 mph - N/A   Clear
5:54 AM 60.1 °F 59.0 °F 96% 29.84 in 10.0 mi West 6.9 mph - N/A   Mostly Cloudy
6:51 AM 60.8 °F 59.0 °F 94% 29.86 in 10.0 mi West 8.1 mph - N/A   Overcast
8:54 AM 63.0 °F 60.1 °F 90% 29.87 in 6.0 mi West 8.1 mph - 0.00 in   Overcast
9:19 AM 62.6 °F 60.8 °F 94% 29.87 in 6.0 mi WNW 4.6 mph - N/A   Overcast
9:34 AM 64.4 °F 60.8 °F 88% 29.87 in 8.0 mi WNW 5.8 mph - N/A   Overcast
9:54 AM 64.0 °F 60.1 °F 87% 29.87 in 10.0 mi West 5.8 mph - N/A   Overcast
10:54 AM 66.0 °F 60.1 °F 81% 29.87 in 10.0 mi West 11.5 mph - N/A   Overcast
12:50 PM 64.4 °F 60.8 °F 88% 29.89 in 8.0 mi NNW 11.5 mph - N/A   Overcast
12:54 PM 64.0 °F 59.0 °F 84% 29.88 in 8.0 mi NNW 11.5 mph - N/A   Overcast
1:39 PM 62.6 °F 57.2 °F 82% 29.89 in 10.0 mi NNW 10.4 mph - N/A   Overcast
1:54 PM 62.1 °F 57.0 °F 84% 29.89 in 10.0 mi NNW 11.5 mph - N/A   Overcast
2:27 PM 60.8 °F 55.4 °F 82% 29.90 in 10.0 mi NNW 12.7 mph - N/A   Overcast
2:54 PM 57.9 °F 55.0 °F 90% 29.90 in 10.0 mi NNW 15.0 mph - N/A   Overcast
3:54 PM 57.0 °F 53.1 °F 87% 29.92 in 10.0 mi NW 11.5 mph - N/A   Overcast
4:54 PM 55.9 °F 52.0 °F 87% 29.92 in 10.0 mi NW 11.5 mph - N/A   Overcast
5:41 PM 55.4 °F 51.8 °F 88% 29.93 in 10.0 mi NNW 11.5 mph - N/A   Overcast
5:54 PM 55.0 °F 51.1 °F 86% 29.93 in 10.0 mi NW 12.7 mph - N/A   Overcast
6:04 PM 53.6 °F 51.8 °F 94% 29.93 in 8.0 mi NNW 16.1 mph - N/A   Overcast
6:54 PM 54.0 °F 51.1 °F 90% 29.95 in 10.0 mi NW 11.5 mph - N/A   Overcast
7:26 PM 53.6 °F 51.8 °F 94% 29.95 in 10.0 mi NNW 12.7 mph - N/A   Overcast
7:41 PM 53.6 °F 51.8 °F 94% 29.96 in 10.0 mi NNW 10.4 mph - N/A   Overcast
7:54 PM 53.1 °F 50.0 °F 89% 29.96 in 10.0 mi North 13.8 mph - N/A   Overcast
8:28 PM 53.6 °F 50.0 °F 88% 29.96 in 10.0 mi North 11.5 mph - N/A   Overcast
8:35 PM 53.6 °F 50.0 °F 88% 29.96 in 10.0 mi North 11.5 mph - N/A   Overcast
8:54 PM 52.0 °F 50.0 °F 93% 29.96 in 10.0 mi North 10.4 mph - N/A   Overcast
9:04 PM 51.8 °F 50.0 °F 94% 29.97 in 10.0 mi North 13.8 mph - N/A   Overcast
9:23 PM 51.8 °F 50.0 °F 94% 29.97 in 10.0 mi North 10.4 mph - N/A   Overcast
9:35 PM 51.8 °F 50.0 °F 94% 29.97 in 10.0 mi North 11.5 mph - N/A   Overcast
9:37 PM 51.8 °F 50.0 °F 94% 29.97 in 10.0 mi North 10.4 mph - N/A   Overcast
9:44 PM 51.8 °F 50.0 °F 94% 29.97 in 10.0 mi North 11.5 mph - N/A   Overcast
9:54 PM 52.0 °F 50.0 °F 93% 29.97 in 9.0 mi North 11.5 mph - N/A   Overcast
10:04 PM 51.8 °F 50.0 °F 94% 29.97 in 9.0 mi North 9.2 mph - N/A   Overcast
10:23 PM 51.8 °F 50.0 °F 94% 29.97 in 9.0 mi North 9.2 mph - N/A   Overcast
10:45 PM 51.8 °F 50.0 °F 94% 29.98 in 8.0 mi North 9.2 mph - N/A   Overcast
10:54 PM 52.0 °F 50.0 °F 93% 29.98 in 7.0 mi North 6.9 mph - N/A   Overcast
11:36 PM 51.8 °F 50.0 °F 94% 29.98 in 7.0 mi North 9.2 mph - N/A   Overcast
11:54 PM 52.0 °F 50.0 °F 93% 29.98 in 8.0 mi NNE 9.2 mph - N/A   Overcast